Regional Weather Roundup
Issued by NWS

Home | Current Version | Previous Version | Graphics & Text | Print | Product List | Glossary On
Versions: 1 2 3 4 5 6 7 8 9 10 11 12 13 14 15 16 17 18 19 20 21 22 23 24 25 26 27 28 29 30 31 32 33 34 35 36 37 38 39 40 41 42 43 44 45 46 47 48 49 50
000
ASUS43 KIND 291009
RWRIN

WEATHER ROUNDUP FOR INDIANA
NATIONAL WEATHER SERVICE INDIANAPOLIS IN
500 AM EST THU JAN 29 2015

NOTE: "FAIR" INDICATES FEW OR NO CLOUDS BELOW 12,000 FEET WITH NO
SIGNIFICANT WEATHER AND/OR OBSTRUCTIONS TO VISIBILITY.

* - STATION DOES NOT REPORT WEATHER SUCH AS PRECIPITATION OR FOG.

+ - STATION NOT QUALITY CONTROLLED BY THE NATIONAL WEATHER SERVICE.
    USE DATA WITH CAUTION...ESPECIALLY DEWPOINT AND RELATIVE
    HUMIDITY OBSERVATIONS.

INZ001>003-010>013-019-020-291100-
NORTHWEST INDIANA

CITY           SKY/WX    TMP DP  RH WIND       PRES   REMARKS
KNOX *+        CLOUDY    35  11  36 S13       29.74F WCI  26
LA PORTE +     CLOUDY    36  26  67 S6        29.75F
MICHIGAN CITY+ CLOUDY    36  19  51 S8        29.74F
MONTICELLO +   CLOUDY    39  26  61 S6        29.75F
RENSSELAER +   MOCLDY    36  32  87 S7        29.74F
VALPARAISO     CLOUDY    34  24  67 S9        29.74F WCI  27

$$

LMZ046-743>745-291100-
SOUTHERN LAKE MICHIGAN

STATION/POSITION TIME  TEMP WIND        PRES
                       AIR  DIR/SP/G
                 (UTC) (F)  (DEG/KT/KT) (MB)
MICHIGAN CITY    1000   37  140/ 14/ 20   N/A

$$

INZ004-005-014>016-021>024-291100-
NORTH CENTRAL INDIANA

CITY           SKY/WX    TMP DP  RH WIND       PRES   REMARKS
GOSHEN         CLOUDY    34  24  67 S14       29.78F WCI  25
LOGANSPORT +   CLOUDY    36  27  69 S14       29.78F
PERU/GRISSOM   CLOUDY    37  25  63 S9        29.77F
ROCHESTER +    CLOUDY    37  27  65 S9        29.78F
SOUTH BEND     CLOUDY    35  24  64 S9        29.77F WCI  28
WARSAW +       CLOUDY    34  25  69 SE6       29.79F WCI  29

$$

INZ006>009-017-018-025>027-291100-
NORTHEAST INDIANA

CITY           SKY/WX    TMP DP  RH WIND       PRES   REMARKS
ANGOLA *+      CLOUDY    28  23  80 S13       29.81F WCI  18
AUBURN +       CLOUDY    32  27  80 SE6       29.83F WCI  26
FORT WAYNE     FRZ DRZL  34  25  69 S14       29.83F WCI  25
HUNTINGTON +   CLOUDY    35  20  53 S9        29.80F WCI  28

$$

INZ028-029-035-036-043>045-051>053-291100-
WEST CENTRAL INDIANA

CITY           SKY/WX    TMP DP  RH WIND       PRES   REMARKS
CRAWFORDSVL +  CLOUDY    39  24  54 S17       29.78F
GREENCASTLE +  CLOUDY    37  27  65 S10       29.81F
LAFAYETTE      CLOUDY    40  27  59 S8        29.76F
TERRE HAUTE    CLOUDY    40  30  67 S10       29.81F

$$

INZ030>032-037>040-046>048-054>057-064-065-291100-
CENTRAL INDIANA

CITY           SKY/WX    TMP DP  RH WIND       PRES   REMARKS
CP ATTERBURY + CLOUDY    36  27  69 S10       29.87F
INDIANAPOLIS   CLOUDY    36  23  59 S13       29.82F
-EAGLE CREEK   CLOUDY    36  23  59 S8        29.82F
KOKOMO *+      CLOUDY    37  25  60 S20       29.78F
MARION +       CLOUDY    36  26  65 S16       29.81F
MT COMFORT *+  CLOUDY    37  16  41 S14       29.84F
SHELBYVILLE    CLOUDY    39  25  57 S20       29.85F
ZIONSVILLE +   CLOUDY    37  21  52 S13G22    29.81F

$$

INZ033-034-041-042-049-050-058-059-291100-
EAST CENTRAL INDIANA

CITY           SKY/WX    TMP DP  RH WIND       PRES   REMARKS
MUNCIE         LGT RAIN  38  25  59 S18G30    29.83F

$$

INZ060-061-067>069-081>083-085>088-291100-
SOUTHWEST INDIANA

CITY           SKY/WX    TMP DP  RH WIND       PRES   REMARKS
EVANSVILLE     CLOUDY    48  32  53 S12       29.88F
HUNTINGBURG *+ CLOUDY    45  32  61 S18G24    29.89F
WASHINGTON +   CLOUDY    41  30  63 S18       29.83F

$$

INZ062-063-066-070>080-084-089>092-291100-
SOUTH CENTRAL AND SOUTHEAST INDIANA

CITY           SKY/WX    TMP DP  RH WIND       PRES   REMARKS
BLOOMINGTON    CLOUDY    38  31  76 S9        29.84F

$$




USA.gov is the U.S. government's official web portal to all federal, state and local government web resources and services.